Stanley, ND

6:48 PM CDT on August 24, 2016 (GMT -0500)
Stanley

Weather History for K08D - January, 2014

Change the Weather History Date:

Wednesday, January 1, 2014

  Actual Average (KMOT) Record (KMOT)
Temperature  
Mean Temperature -4 °F 12 °F  
Max Temperature 0 °F 21 °F 50 °F (1998)
Min Temperature -7 °F 4 °F -31 °F (1919)
Degree Days  
Heating Degree Days 68 53  
Month to date heating degree days 53  
Since 1 July heating degree days 3648  
Moisture  
Dew Point -9 °F    
Average Humidity 76    
Maximum Humidity 84    
Minimum Humidity 66    
Precipitation  
Precipitation 0.03 in 0.02 in 0.49 in (1960)
Month to date precipitation 0.02  
Year to date precipitation 0.02  
Sea Level Pressure  
Sea Level Pressure 30.24 in    
Wind  
Wind Speed 6 mph (SSW)    
Max Wind Speed 13 mph    
Max Gust Speed -    
Visibility 10 miles    
Events Snow    
T = Trace of Precipitation, MM = Missing Value Source: NWS Daily Summary

Daily Weather History Graph

Daily Weather History Graph

Search for Another Location

Airport or City:

Trip Planner

Search our weather history database for the weather conditions in past years. The results will help you decide how hot, cold, wet, or windy it might be!

Date:

Astronomy

Jan. 01, 2014 Rise Set
Actual Time 8:40 AM CST 5:06 PM CST
Civil Twilight 8:04 AM CST 5:42 PM CST
Nautical Twilight 7:24 AM CST 6:22 PM CST
Astronomical Twilight 6:46 AM CST 7:00 PM CST
Moon 8:27 AM CST (1/1) 6:00 PM CST (1/1)
Length of Visible Light 9h 38m
Length of Day
8h 25m
New Moon, 0% of the Moon is Illuminated
Jan 1
New Moon
Jan 7
First Quarter
Jan 15
Full
Jan 23
Last Quarter
Jan 30
New

Hourly Weather History & Observations

Time (CST) Temp. Windchill Dew Point Humidity Pressure Visibility Wind Dir Wind Speed Gust Speed Precip Events Conditions
12:15 AM -5.8 °F -24.4 °F -11.2 °F 77% 30.15 in - SSE 11.5 mph - N/A   Overcast
12:35 AM -5.8 °F -23.4 °F -11.2 °F 77% 30.14 in - SSE 10.4 mph - N/A   Overcast
12:55 AM -5.8 °F -23.4 °F -11.2 °F 77% 30.14 in - SE 10.4 mph - N/A   Overcast
1:15 AM -5.8 °F -24.4 °F -9.4 °F 84% 30.14 in 10.0 mi SSE 11.5 mph - N/A Snow Light Snow
1:35 AM -4.0 °F -23.0 °F -9.4 °F 78% 30.12 in 10.0 mi SSE 12.7 mph - N/A   Overcast
1:55 AM -4.0 °F -22.1 °F -9.4 °F 78% 30.14 in - SSE 11.5 mph - N/A Snow Heavy Snow
2:15 AM -4.0 °F -19.0 °F -9.4 °F 78% 30.14 in - SSE 8.1 mph - N/A Snow Heavy Snow
2:35 AM -4.0 °F -20.2 °F -9.4 °F 78% 30.13 in - SSE 9.2 mph - 0.01 in Snow Heavy Snow
2:55 AM -4.0 °F -20.2 °F -9.4 °F 78% 30.15 in - SE 9.2 mph - 0.01 in Snow Heavy Snow
3:15 AM -4.0 °F -19.0 °F -9.4 °F 78% 30.15 in - SE 8.1 mph - N/A Snow Heavy Snow
3:35 AM -4.0 °F -20.2 °F -9.4 °F 78% 30.15 in - SSE 9.2 mph - N/A Snow Heavy Snow
3:55 AM -4.0 °F -17.8 °F -9.4 °F 78% 30.16 in - SE 6.9 mph - N/A Snow Heavy Snow
4:15 AM -4.0 °F -16.3 °F -9.4 °F 78% 30.16 in - SE 5.8 mph - N/A   Overcast
4:35 AM -4.0 °F -17.8 °F -9.4 °F 78% 30.16 in - SSE 6.9 mph - N/A   Overcast
4:55 AM -4.0 °F -16.3 °F -9.4 °F 78% 30.16 in - SSE 5.8 mph - N/A   Overcast
5:15 AM -4.0 °F -17.8 °F -9.4 °F 78% 30.16 in 10.0 mi SE 6.9 mph - N/A   Overcast
5:35 AM -4.0 °F -17.8 °F -9.4 °F 78% 30.16 in - SE 6.9 mph - N/A   Overcast
5:55 AM -4.0 °F -17.8 °F -9.4 °F 78% 30.16 in - SSE 6.9 mph - N/A   Overcast
6:15 AM -4.0 °F -16.3 °F -9.4 °F 78% 30.17 in - South 5.8 mph - N/A   Overcast
6:35 AM -4.0 °F -14.6 °F -9.4 °F 78% 30.18 in - SE 4.6 mph - N/A   Overcast
6:55 AM -4.0 °F -12.4 °F -9.4 °F 78% 30.19 in - South 3.5 mph - N/A   Overcast
7:15 AM -4.0 °F -14.6 °F -9.4 °F 78% 30.18 in - SSE 4.6 mph - N/A   Overcast
7:35 AM -4.0 °F - -9.4 °F 78% 30.20 in - Calm Calm - N/A   Overcast
7:55 AM -4.0 °F - -9.4 °F 78% 30.20 in 10.0 mi Calm Calm - N/A   Overcast
8:15 AM -4.0 °F - -9.4 °F 78% 30.22 in 10.0 mi Calm Calm - N/A   Overcast
8:35 AM -2.2 °F - -9.4 °F 71% 30.22 in 10.0 mi Calm Calm - N/A   Overcast
8:55 AM -4.0 °F - -9.4 °F 78% 30.23 in 10.0 mi Calm Calm - N/A Snow Light Snow
9:15 AM -2.2 °F - -9.4 °F 71% 30.24 in 10.0 mi Calm Calm - N/A   Overcast
9:35 AM -2.2 °F -10.4 °F -9.4 °F 71% 30.26 in 10.0 mi North 3.5 mph - N/A Snow Light Snow
9:55 AM -2.2 °F -12.5 °F -9.4 °F 71% 30.28 in 10.0 mi North 4.6 mph - N/A Snow Light Snow
10:15 AM -2.2 °F -10.4 °F -9.4 °F 71% 30.28 in 8.0 mi NNE 3.5 mph - 0.01 in Snow Light Snow
10:35 AM -2.2 °F -10.4 °F -9.4 °F 71% 30.28 in 10.0 mi North 3.5 mph - 0.02 in Snow Light Snow
10:55 AM -2.2 °F - -9.4 °F 71% 30.29 in 10.0 mi Calm Calm - 0.02 in Snow Light Snow
11:15 AM -2.2 °F - -9.4 °F 71% 30.29 in 10.0 mi Calm Calm - N/A   Scattered Clouds
11:35 AM -2.2 °F - -9.4 °F 71% 30.28 in 10.0 mi Calm Calm - N/A   Clear
11:55 AM -0.4 °F -8.3 °F -9.4 °F 66% 30.29 in 10.0 mi West 3.5 mph - N/A   Scattered Clouds
12:15 PM -0.4 °F -8.3 °F -9.4 °F 66% 30.28 in 10.0 mi WNW 3.5 mph - N/A   Mostly Cloudy
12:35 PM -2.2 °F -10.4 °F -9.4 °F 71% 30.29 in 10.0 mi WNW 3.5 mph - N/A   Overcast
12:55 PM -2.2 °F -10.4 °F -7.6 °F 78% 30.28 in 10.0 mi WNW 3.5 mph - N/A   Overcast
1:15 PM -0.4 °F -8.3 °F -9.4 °F 66% 30.28 in 10.0 mi NW 3.5 mph - N/A   Mostly Cloudy
1:35 PM -0.4 °F -12.0 °F -7.6 °F 72% 30.28 in 10.0 mi NW 5.8 mph - N/A   Partly Cloudy
1:55 PM -0.4 °F -13.4 °F -7.6 °F 72% 30.29 in 10.0 mi NW 6.9 mph - N/A   Mostly Cloudy
2:15 PM -0.4 °F -10.4 °F -7.6 °F 72% 30.28 in 10.0 mi NNW 4.6 mph - N/A   Overcast
2:35 PM -0.4 °F -10.4 °F -7.6 °F 72% 30.28 in 10.0 mi NW 4.6 mph - N/A   Overcast
2:55 PM -0.4 °F -10.4 °F -7.6 °F 72% 30.28 in 10.0 mi WNW 4.6 mph - N/A   Overcast
3:15 PM -0.4 °F -12.0 °F -7.6 °F 72% 30.28 in 10.0 mi NW 5.8 mph - N/A   Overcast
3:35 PM -0.4 °F -10.4 °F -7.6 °F 72% 30.28 in 10.0 mi NW 4.6 mph - N/A   Overcast
3:55 PM -0.4 °F -8.3 °F -7.6 °F 72% 30.29 in 10.0 mi NW 3.5 mph - N/A   Mostly Cloudy
4:15 PM -2.2 °F -10.4 °F -9.4 °F 71% 30.29 in 10.0 mi NNW 3.5 mph - N/A   Partly Cloudy
4:35 PM -2.2 °F -12.5 °F -7.6 °F 78% 30.29 in 10.0 mi NW 4.6 mph - N/A   Mostly Cloudy
4:55 PM -4.0 °F -12.4 °F -9.4 °F 78% 30.29 in 10.0 mi NNW 3.5 mph - N/A Snow Light Snow
5:15 PM -5.8 °F -14.5 °F -11.2 °F 77% 30.29 in 10.0 mi NNW 3.5 mph - N/A   Partly Cloudy
5:35 PM -7.6 °F - -13.0 °F 77% 30.29 in 10.0 mi Calm Calm - N/A   Scattered Clouds
5:55 PM -7.6 °F -16.5 °F -11.2 °F 84% 30.29 in 10.0 mi WNW 3.5 mph - N/A   Overcast
6:15 PM -7.6 °F - -11.2 °F 84% 30.29 in 10.0 mi Calm Calm - N/A   Overcast
6:35 PM -5.8 °F - -11.2 °F 77% 30.29 in 10.0 mi Calm Calm - N/A   Overcast
6:55 PM -5.8 °F - -11.2 °F 77% 30.29 in 10.0 mi Calm Calm - N/A   Overcast
7:15 PM -4.0 °F -14.6 °F -9.4 °F 78% 30.30 in 10.0 mi NW 4.6 mph - N/A   Mostly Cloudy
7:35 PM -4.0 °F -12.4 °F -9.4 °F 78% 30.29 in 10.0 mi NNW 3.5 mph - N/A   Overcast
7:55 PM -4.0 °F - -9.4 °F 78% 30.28 in 10.0 mi Calm Calm - N/A Snow Light Snow
8:15 PM -2.2 °F - -7.6 °F 78% 30.28 in 10.0 mi Calm Calm - N/A Snow Light Snow
8:35 PM -4.0 °F - -9.4 °F 78% 30.28 in 10.0 mi Calm Calm - N/A   Overcast
8:55 PM -4.0 °F - -9.4 °F 78% 30.28 in 10.0 mi Calm Calm - N/A   Overcast
9:15 PM -4.0 °F -12.4 °F -9.4 °F 78% 30.28 in 10.0 mi East 3.5 mph - N/A   Overcast
9:35 PM -4.0 °F - -9.4 °F 78% 30.28 in 10.0 mi Calm Calm - N/A   Overcast
9:55 PM -4.0 °F - -9.4 °F 78% 30.28 in 10.0 mi Calm Calm - N/A   Overcast
10:15 PM -4.0 °F - -9.4 °F 78% 30.27 in 10.0 mi Calm Calm - N/A   Overcast
10:35 PM -4.0 °F - -9.4 °F 78% 30.28 in 10.0 mi Calm Calm - N/A   Overcast
10:55 PM -4.0 °F - -9.4 °F 78% 30.28 in 10.0 mi Calm Calm - N/A   Overcast
11:15 PM -4.0 °F - -9.4 °F 78% 30.27 in 10.0 mi Calm Calm - N/A   Overcast
11:35 PM -7.6 °F -16.5 °F -11.2 °F 84% 30.27 in 10.0 mi ESE 3.5 mph - N/A   Overcast
11:55 PM -7.6 °F - -11.2 °F 84% 30.27 in 10.0 mi Calm Calm - N/A   Scattered Clouds